Creek Data

    Home     View Charts     View Raw Data     Messages

ID Distance Battery Voltage Battery Current Internal Temp Internal Humidity External Temp Solar Input rssi snr Time Stamp Record
66406 15.0 3.73 -5 50 52 51 0 -74 8 02/16/2026 02:45 AM 49221
66405 15.0 3.74 -5 51 52 51 0.1 -74 7 02/16/2026 02:30 AM 49220
66404 15.0 3.88 -5 51 52 51 0 -73 7 02/16/2026 02:15 AM 49219
66403 1.6 3.74 -5 51 52 51 0 -73 7 02/16/2026 02:00 AM 49218
66402 15.0 3.75 -5 51 52 51 0 -73 8 02/16/2026 01:45 AM 49217
66401 15.0 3.88 -5 51 52 51 0 -73 7 02/16/2026 01:30 AM 49216
66400 15.0 3.72 -5 51 52 51 0 -72 8 02/16/2026 01:15 AM 49215
66399 15.1 3.74 -5 51 52 51 0 -73 8 02/16/2026 01:00 AM 49214
66398 15.0 3.73 -5 51 52 51 0 -73 8 02/16/2026 12:45 AM 49213
66397 15.0 3.73 -5 51 52 52 0 -73 8 02/16/2026 12:30 AM 49212
66396 15.0 3.89 -5 51 52 52 0.1 -72 8 02/16/2026 12:15 AM 49211
66395 15.0 3.73 -5 51 52 52 0 -71 7 02/15/2026 11:45 PM 49209
66394 15.1 3.75 -5 51 52 52 0.1 -73 7 02/15/2026 11:30 PM 49208
66393 15.1 3.76 -5 51 52 52 0 -73 8 02/15/2026 11:15 PM 49207
66392 15.1 3.90 -5 51 52 52 0.1 -73 8 02/15/2026 10:45 PM 49205
66391 15.1 3.89 -5 52 52 52 0.1 -72 6 02/15/2026 10:30 PM 49204
66390 15.1 3.75 -5 52 52 52 0 -73 7 02/15/2026 10:15 PM 49203
66389 15.1 3.75 -5 52 52 52 0 -73 7 02/15/2026 10:00 PM 49202
66388 15.1 3.75 -5 52 52 52 0 -74 7 02/15/2026 09:45 PM 49201
66387 15.1 3.89 -5 52 52 53 0 -74 7 02/15/2026 09:30 PM 49200
66386 15.1 3.89 -5 53 52 53 0 -74 7 02/15/2026 09:15 PM 49199
66385 15.1 3.89 -5 53 52 53 0 -75 7 02/15/2026 09:00 PM 49198
66384 15.1 3.88 -5 55 52 55 0 -68 8 02/15/2026 08:45 PM 49197
66383 15.1 3.89 -5 55 52 56 0 -70 8 02/15/2026 08:30 PM 49196
66382 15.1 3.88 -5 56 52 56 0.1 -68 8 02/15/2026 08:15 PM 49195